Погода в Кривом Озере

Украина / Николаевская область     47°56′42″N   30°21′09″E
темп.,
°C
ветер,
м/с
пор.,
м/с
влажн.,
%
обл.,
%
осадки,
мм/ч
давл.,
гПа
погр.,
м
26 февраля, пт
пт2623:00+2зсз23100100 0.0 103022
02:00+2з239999 0.0 102925
05:00+1зсз229750 0.0 102822
08:00+2зюз229537 0.0 102622
11:00+3з341004 0.0 102653
14:00+5зюз4510051 0.0 102378
17:00+4з44100100 0.0 102162
20:00+3зсз458957 0.0 102156
27 февраля, сб
сб2723:00+3зсз34910 0.0 102042
02:00+3зсз34920 0.0 101952
05:00+2сз46955 0.0 1018108
08:00+2сз4119835 0.0 1019250
11:00+4сз51099100 0.0 1020542
14:00+4сз51090100 0.1 1021666
17:00+2зсз41087100 0.0 1020376
20:00+2сз61197100 0.1 1021443
28 февраля, вс
вс2823:00+2сз61197100 0.1 1021491
02:00+1сз5119396 0.1 1022460
05:00+1ссз599897 0.1 1023420
08:000ссз5119095 0.3 1024579
11:00+3ссз687976 0.0 1025917
14:00+2ссз687888 0.1 1026895
17:00+1сз5981100 0.1 1025640
20:000сз41087100 0.1 1026405
1 марта, пн
пн123:000зсз3686100 0.0 1025177
02:000зсз3699100 0.3 1025233
05:00+1зсз2598100 0.3 1024186
08:00+1ссз2399100 0.5 1026137
11:00+2ссв4697100 0.1 1028343
14:00+3с4682100 0.2 1030761
17:00+2с3784100 0.1 1030298
20:00+1ссз2385100 0.1 103269
2 марта, вт
вт223:00+1з2390100 0.0 103372
02:00+1зсз368998 0.0 1032163
05:00+2з488896 0.0 1031272
08:00+2зсз5109198 0.0 1030311
11:00+5зсз61179100 0.0 1029468
14:00+9зсз71266100 0.0 1027717
17:00+9зсз6136634 0.0 1025541
20:00+6сз5137618 0.0 1025314